Starlink 5464

operational
NORAD ID: 54758 Int'l Des: 2022-175 Owner: SPXS Country: US Constellation: starlink
LEOCIRCULAR

About Starlink 5464

Description loading...

Live Position

Loading 3D Globe...

Upcoming Passes

Altitude History

Altitude vs Time

uPlot chart will show altitude changes over time

Two-Line Element Set

1 54758U 22175A 25256.87585107 -.00008617 00000-0 -52488-3 0 9991
2 54758 53.2143 113.0644 0001294 99.2840 260.8299 15.08778516153290
Epoch: Sep 13, 2025 • Age: 36 hours

Current Status

Altitude 546.4 km
Velocity 7.59 km/s
Sub-Earth Point -20.67°S, 46.73°W
Launch Date Dec 17, 2022
Age 2.7 years
Type internet

Technical Details

Classification Payload
Mass 305.00 kg
Dry Mass 290.00 kg
Total Mass 305.00 kg
Length 0.20 m
Diameter 2.80 m
Span 9.00 m
Shape Box + pan
Manufacturer SPXS
Bus Type Starlink
Phase Status In Orbit
Owner/State SPXS/US

Large Constellations

Loading constellations...